Location: Unspecified
(48.5670°N, 0.0000°E)
Time: 05:36:12
(UTC+00:00)

Altair - Pass Details

Date: 31 August 2019
Orbit: 1501 x 1683 km, 47.2° (Epoch: 21 September)

Event Time Altitude Azimuth Distance (km) Brightness Sun altitude
Exits shadow 23:18:41 21° 98° (E) 3,097 8.9 -32.2°
Drops below altitude 10° 23:22:10 10° 81° (E) 3,840 9.5 -32.4°
Sets 23:25:47 0° 70° (ENE) 4,800 10.2 -32.5°
